Erwin, NC

5:19 AM EDT on June 24, 2017 (GMT -0400)
Harnett County

Weather History for KHRJ - February, 2014

Change the Weather History Date:

Wednesday, February 12, 2014

  Actual Average Record
Temperature  
Mean Temperature 29 °F -  
Max Temperature 33 °F 56 °F 82 °F (2017)
Min Temperature 25 °F 29 °F 9 °F (1973)
Degree Days  
Heating Degree Days 36    
Moisture  
Dew Point 21 °F    
Average Humidity 75    
Maximum Humidity 99    
Minimum Humidity 53    
Precipitation  
Precipitation 0.00 in - - ()
Sea Level Pressure  
Sea Level Pressure 30.22 in    
Wind  
Wind Speed 8 mph (North)    
Max Wind Speed 16 mph    
Max Gust Speed 25 mph    
Visibility 6 miles    
Events Snow    
Averages and records for this station are not official NWS values.
T = Trace of Precipitation, MM = Missing Value Source: NWS Daily Summary

Daily Weather History Graph

Daily Weather History Graph

Search for Another Location

Airport or City:

Trip Planner

Search our weather history database for the weather conditions in past years. The results will help you decide how hot, cold, wet, or windy it might be!

Date:

Astronomy

Feb. 12, 2014 Rise Set
Actual Time 7:04 AM EST 5:54 PM EST
Civil Twilight 6:38 AM EST 6:20 PM EST
Nautical Twilight 6:08 AM EST 6:50 PM EST
Astronomical Twilight 5:38 AM EST 7:19 PM EST
Moon 4:07 PM EST (2/12) 5:18 AM EST (2/12)
Length of Visible Light 11h 42m
Length of Day
10h 49m
Waxing Gibbous, 95% of the Moon is Illuminated
Feb 12
Waxing Gibbous
Feb 14
Full
Feb 22
Last Quarter
Mar 1
New
Mar 8
First Quarter

Hourly Weather History & Observations

Time (EST) Temp. Windchill Dew Point Humidity Pressure Visibility Wind Dir Wind Speed Gust Speed Precip Events Conditions
12:15 AM 31.1 °F 25.4 °F 19.9 °F 63% 30.39 in 10.0 mi NE 5.8 mph - N/A   Overcast
12:35 AM 30.7 °F 26.0 °F 19.4 °F 63% 30.38 in 10.0 mi NE 4.6 mph - N/A   Overcast
12:55 AM 30.6 °F 23.8 °F 18.5 °F 61% 30.39 in 10.0 mi NE 6.9 mph - N/A   Overcast
1:15 AM 30.4 °F 23.6 °F 18.9 °F 62% 30.39 in 10.0 mi NE 6.9 mph - N/A   Overcast
1:35 AM 30.0 °F 23.2 °F 18.5 °F 62% 30.39 in 10.0 mi NE 6.9 mph - N/A   Mostly Cloudy
1:55 AM 29.8 °F 23.0 °F 18.3 °F 62% 30.38 in 10.0 mi NNE 6.9 mph - N/A   Mostly Cloudy
2:15 AM 29.8 °F 23.9 °F 17.8 °F 61% 30.38 in 10.0 mi NE 5.8 mph - N/A   Mostly Cloudy
2:35 AM 29.7 °F 20.7 °F 15.3 °F 55% 30.39 in 10.0 mi NE 10.4 mph 17.3 mph N/A   Overcast
2:55 AM 29.7 °F 22.0 °F 14.5 °F 53% 30.39 in 10.0 mi NE 8.1 mph - N/A   Overcast
3:15 AM 29.1 °F 20.0 °F 14.9 °F 55% 30.39 in 10.0 mi NE 10.4 mph - N/A   Scattered Clouds
3:35 AM 29.3 °F 20.8 °F 14.5 °F 54% 30.38 in 10.0 mi NE 9.2 mph - N/A   Mostly Cloudy
3:55 AM 28.9 °F 19.2 °F 14.4 °F 55% 30.39 in 10.0 mi NE 11.5 mph - N/A   Overcast
4:15 AM 28.9 °F 20.4 °F 14.7 °F 55% 30.39 in 10.0 mi NE 9.2 mph - N/A   Mostly Cloudy
4:35 AM 28.8 °F 19.5 °F 14.5 °F 55% 30.37 in 10.0 mi NNE 10.4 mph 18.4 mph N/A   Scattered Clouds
4:55 AM 28.8 °F 20.2 °F 14.0 °F 54% 30.39 in 10.0 mi NNE 9.2 mph - N/A   Clear
5:15 AM 28.8 °F 19.5 °F 14.2 °F 55% 30.39 in 10.0 mi NE 10.4 mph - N/A   Clear
5:35 AM 28.8 °F 20.2 °F 14.4 °F 55% 30.40 in 10.0 mi NE 9.2 mph - N/A   Clear
5:55 AM 28.8 °F 18.4 °F 14.5 °F 55% 30.39 in 10.0 mi NE 12.7 mph - N/A   Scattered Clouds
6:15 AM 28.4 °F 18.5 °F 14.5 °F 56% 30.38 in 10.0 mi NE 11.5 mph 16.1 mph N/A   Mostly Cloudy
6:35 AM 28.4 °F 19.7 °F 14.7 °F 57% 30.38 in 10.0 mi NNE 9.2 mph - N/A   Scattered Clouds
6:55 AM 28.2 °F 19.5 °F 14.9 °F 57% 30.38 in 10.0 mi NE 9.2 mph 17.3 mph N/A   Scattered Clouds
7:15 AM 28.2 °F 19.5 °F 14.7 °F 57% 30.38 in 10.0 mi NE 9.2 mph 16.1 mph N/A   Scattered Clouds
7:35 AM 28.2 °F 17.2 °F 14.9 °F 57% 30.38 in 10.0 mi NE 13.8 mph 19.6 mph N/A   Mostly Cloudy
7:55 AM 28.4 °F 19.1 °F 15.6 °F 59% 30.39 in 10.0 mi NNE 10.4 mph - N/A   Overcast
8:15 AM 28.4 °F 19.7 °F 15.4 °F 58% 30.40 in 10.0 mi NE 9.2 mph - N/A   Overcast
8:35 AM 28.4 °F 18.5 °F 15.3 °F 58% 30.40 in 10.0 mi NNE 11.5 mph 16.1 mph N/A   Overcast
8:55 AM 28.4 °F 20.4 °F 14.7 °F 57% 30.40 in 10.0 mi NNE 8.1 mph 18.4 mph N/A   Overcast
9:15 AM 28.8 °F 20.2 °F 14.7 °F 56% 30.41 in 10.0 mi NE 9.2 mph - N/A   Overcast
9:35 AM 29.1 °F 19.4 °F 14.5 °F 55% 30.41 in 10.0 mi NE 11.5 mph - N/A   Overcast
9:55 AM 28.9 °F 19.2 °F 14.9 °F 56% 30.40 in 10.0 mi NE 11.5 mph - N/A   Overcast
10:15 AM 28.9 °F 21.1 °F 15.1 °F 56% 30.40 in 10.0 mi NNE 8.1 mph - N/A   Overcast
10:35 AM 28.9 °F 21.9 °F 14.9 °F 56% 30.38 in 10.0 mi NNE 6.9 mph - N/A   Overcast
10:55 AM 28.9 °F 21.9 °F 14.0 °F 54% 30.38 in 10.0 mi NNE 6.9 mph 10.4 mph N/A   Overcast
11:15 AM 28.9 °F 19.8 °F 14.4 °F 55% 30.38 in 10.0 mi NNE 10.4 mph - N/A   Overcast
11:35 AM 27.7 °F 16.6 °F 18.1 °F 67% 30.37 in 1.2 mi NNE 13.8 mph 18.4 mph N/A Snow Light Snow
11:55 AM 25.7 °F 18.0 °F 21.4 °F 84% 30.36 in 0.5 mi NNE 6.9 mph - N/A Snow Snow
12:15 PM 25.5 °F 17.8 °F 22.1 °F 87% 30.34 in 0.5 mi North 6.9 mph - N/A Snow Snow
12:35 PM 25.5 °F 18.7 °F 22.1 °F 87% 30.33 in 0.5 mi North 5.8 mph - N/A Snow Snow
12:55 PM 25.5 °F 18.7 °F 23.0 °F 90% 30.31 in 0.2 mi North 5.8 mph - N/A Snow Snow
1:15 PM 25.5 °F 16.9 °F 23.9 °F 94% 30.28 in 0.2 mi North 8.1 mph - N/A Snow Snow
1:35 PM 25.7 °F 17.1 °F 24.1 °F 94% 30.25 in 0.2 mi North 8.1 mph 16.1 mph N/A Snow Snow
1:55 PM 26.1 °F 17.6 °F 23.9 °F 92% 30.23 in 0.8 mi North 8.1 mph - N/A Snow Light Snow
2:15 PM 26.2 °F 17.1 °F 23.5 °F 90% 30.22 in 1.5 mi North 9.2 mph - N/A Snow Light Snow
2:35 PM 26.2 °F 15.8 °F 23.4 °F 89% 30.20 in 1.2 mi North 11.5 mph 18.4 mph N/A Snow Light Snow
2:55 PM 26.6 °F 16.2 °F 23.0 °F 86% 30.19 in 2.5 mi North 11.5 mph 19.6 mph N/A Snow Light Snow
3:15 PM 26.6 °F 16.2 °F 23.0 °F 86% 30.17 in 2.5 mi WSW 11.5 mph 18.4 mph N/A Snow Light Snow
3:35 PM 26.6 °F 16.8 °F 22.6 °F 85% 30.16 in 2.5 mi WSW 10.4 mph 19.6 mph N/A Snow Light Snow
3:55 PM 26.6 °F 17.5 °F 22.6 °F 85% 30.14 in 2.0 mi WSW 9.2 mph 17.3 mph N/A Snow Light Snow
4:15 PM 26.4 °F 16.0 °F 22.5 °F 85% 30.12 in 2.0 mi WSW 11.5 mph 21.9 mph N/A Snow Light Snow
4:35 PM 26.4 °F 18.0 °F 22.5 °F 85% 30.11 in 2.5 mi SW 8.1 mph - N/A Snow Light Snow
4:55 PM 26.8 °F 17.7 °F 22.8 °F 85% 30.09 in 3.0 mi WSW 9.2 mph 25.3 mph N/A   Overcast
5:15 PM 27.3 °F 17.7 °F 23.4 °F 85% 30.08 in 5.0 mi WSW 10.4 mph 16.1 mph N/A   Overcast
5:35 PM 27.5 °F 16.8 °F 23.9 °F 86% 30.06 in 3.0 mi SW 12.7 mph 21.9 mph N/A   Overcast
5:55 PM 28.0 °F 18.1 °F 25.3 °F 90% 30.04 in 3.0 mi SW 11.5 mph 18.4 mph N/A   Overcast
6:15 PM 28.8 °F 19.5 °F 27.5 °F 95% 30.03 in 2.5 mi WSW 10.4 mph 18.4 mph N/A   Overcast
6:35 PM 29.3 °F 20.2 °F 28.4 °F 96% 30.02 in 2.5 mi SW 10.4 mph 16.1 mph N/A   Overcast
6:55 PM 29.5 °F 19.9 °F 28.4 °F 96% 30.00 in 2.5 mi WSW 11.5 mph 16.1 mph N/A   Overcast
7:15 PM 30.4 °F 21.0 °F 29.3 °F 96% 29.99 in 4.0 mi WSW 11.5 mph 17.3 mph N/A Snow Light Snow
7:35 PM 31.1 °F 20.1 °F 29.8 °F 95% 29.97 in 4.0 mi SW 16.1 mph 24.2 mph N/A   Overcast
7:55 PM 31.1 °F 24.5 °F 30.0 °F 96% 29.97 in 4.0 mi WSW 6.9 mph - N/A   Overcast
8:15 PM 31.6 °F 23.7 °F 30.6 °F 96% 29.97 in 3.0 mi SW 9.2 mph - N/A Snow Light Snow
8:35 PM 32.0 °F 24.8 °F 31.1 °F 96% 29.95 in 2.0 mi SW 8.1 mph 11.5 mph N/A   Overcast
8:55 PM 32.0 °F 25.6 °F 31.8 °F 99% 29.93 in 2.5 mi WSW 6.9 mph - N/A Snow Light Snow
9:15 PM 32.2 °F 25.8 °F 32.0 °F 99% 29.91 in 2.5 mi WSW 6.9 mph - N/A   Overcast
9:35 PM 32.5 °F 26.2 °F 32.0 °F 98% 29.88 in 3.0 mi WSW 6.9 mph - N/A   Overcast
9:55 PM 32.9 °F 26.7 °F 32.0 °F 96% 29.87 in 4.0 mi WSW 6.9 mph - N/A   Overcast
10:15 PM 32.9 °F 25.9 °F 32.0 °F 96% 29.84 in 5.0 mi SW 8.1 mph - N/A   Overcast
10:35 PM 32.9 °F 28.5 °F 32.2 °F 97% 29.83 in 2.5 mi WSW 4.6 mph - N/A   Overcast
10:55 PM 32.9 °F 28.5 °F 32.4 °F 98% 29.81 in 2.0 mi WSW 4.6 mph - N/A   Overcast
11:15 PM 33.1 °F 30.0 °F 32.5 °F 98% 29.78 in 2.5 mi WSW 3.5 mph - N/A   Overcast
11:35 PM 33.1 °F 27.7 °F 32.5 °F 98% 29.76 in 2.5 mi WSW 5.8 mph - N/A   Overcast
11:55 PM 33.1 °F 27.7 °F 32.9 °F 99% 29.76 in 2.5 mi WSW 5.8 mph - N/A   Overcast